SCP
0 0 0 0 0 0 0 0 0 0 0 0 0 0 0 0 0 0 0 0 0 0 0 0 0 0 0 0 0 0 0 0 0 0 0 0 0 0 0 0 0 0 0 0 0 0 0 0 0
0 0 0 0 0 0 0 0 0 0 0 0 0 0 0 0 0 0 0 0 0 0 0 0 0 0 0 0 0 0 0 0 0 0 0 0 0 0 0 0 0 0 0 0 0 0 0 0 0
0 0 0 0 0 0 0 0 0 0 0 0 0 0 0 0 0 0 0 0 0 0 0 0 0 0 0 0 0 0 0 0 0 0 0 0 0 0 0 0 0 0 0 0 0 0 0 0 0
0 0 0 0 0 0 0 0 0 0 0 0 0 0 0 0 0 0 0 0 0 0 0 0 0 0 0 0 0 0 0 0 0 0 0 0 0 0 0 0 0 0 0 0 0 0 0 0 0
0 0 0 0 0 0 0 0 0 0 0 0 0 0 0 0 0 0 0 0 0 0 0 0 0 0 0 0 0 0 0 0 0 0 0 0 0 0 0 0 0 0 0 0 0 0 0 0 0
0 0 0 0 0 0 0 0 0 0 0 0 0 0 0 0 0 0 0 0 0 0 0 0 0 0 0 0 0 0 0 0 0 0 0 0 0 0 0 0 0 0 0 0 0 0 0 0 0
0 0 0 0 0 0 0 0 0 0 0 0 0 0 0 0 0 0 0 0 0 0 0 0 0 0 0 0 0 0 0 0 0 0 0 0 0 0 0 0 0 0 0 0 0 0 0 0 0
0 0 0 0 0 0 0 0 0 0 0 0 0 0 0 0 0 0 0 0 0 0 0 0 0 0 0 0 0 0 0 0 0 0 0 0 0 0 0 0 0 0 0 0 0 0 0 0 0
0 0 0 0 0 0 0 0 0 0 0 0 0 0 0 0 0 0 0 0 0 0 0 0 0 0 0 0 0 0 0 0 0 0 0 0 0 0 0 0 0 0 0 0 0 0 0 0 0
0 0 0 0 0 0 0 0 0 0 0 0 0 0 0 0 0 0 0 0 0 0 0 0 0 0 0 0 0 0 0 0 0 0 0 0 0 0 0 0 0 0 0 0 0 0 0 0 0
0 0 0 0 0 0 0 0 0 0 0 0 0 0 0 0 0 0 0 0 0 0 0 0 0 0 0 0 0 0 0 0 0 0 0 0 0 0 0 0 0 0 0 0 0 0 0 0 0
0 0 0 0 0 0 0 0 0 0 0 0 0 0 0 0 0 0 0 0 0 0 0 0 0 0 0 0 0 0 0 0 0 0 0 0 0 0 0 0 0 0 0 0 0 0 0 0 0
0 0 0 0 0 0 0 0 0 0 0 0 0 0 0 0 0 0 0 0 0 0 0 0 0 0 0 0 0 0 0 0 0 0 0 0 0 0 0 0 0 0 0 0 0 0 0 0 0
0 0 0 0 0 0 0 0 0 0 0 0 0 0 0 0 0 0 0 0 0 0 0 0 0 0 0 0 0 0 0 0 0 0 0 0 0 0 0 0 0 0 0 0 0 0 0 0 0
0 0 0 0 0 0 0 0 0 0 0 0 0 0 0 0 0 0 0 0 0 0 0 0 0 0 0 0 0 0 0 0 0 0 0 0 0 0 0 0 0 0 0 0 0 0 0 0 0
0 0 0 0 0 0 0 0 0 0 0 0 0 0 0 0 0 0 0 0 0 0 0 0 0 0 0 0 0 0 0 0 0 0 0 0 0 0 0 0 0 0 0 0 0 0 0 0 0
0 0 0 0 0 0 0 0 0 0 0 0 0 0 0 0 0 0 0 0 0 0 0 0 0 0 0 0 0 0 0 0 0 0 0 0 0 0 0 0 0 0 0 0 0 0 0 0 0
0 0 0 0 0 0 0 0 0 0 0 0 0 0 0 0 0 0 0 0 0 0 0 0 0 0 0 0 0 0 0 0 0 0 0 0 0 0 0 0 0 0 0 0 0 0 0 0 0
0 0 0 0 0 0 0 0 0 0 0 0 0 0 0 0 0 0 0 0 0 0 0 0 0 0 0 0 0 0 0 0 0 0 0 0 0 0 0 0 0 0 0 0 0 0 0 0 0
0 0 0 0 0 0 0 0 0 0 0 0 0 0 0 0 0 0 0 0 0 0 0 0 0 0 0 0 0 0 0 0 0 0 0 0 0 0 0 0 0 0 0 0 0 0 0 0 0
0 0 0 0 0 0 0 0 0 0 0 0 0 0 0 0 0 0 0 0 0 0 0 0 0 0 0 0 0 0 0 0 0 0 0 0 0 0 0 0 0 0 0 0 0 0 0 0 0
0 0 0 0 0 0 0 0 0 0 0 0 0 0 0 0 0 0 0 0 0 0 0 0 0 0 0 0 0 0 0 0 0 0 0 0 0 0 0 0 0 0 0 0 0 0 0 0 0
0 0 0 0 0 0 0 0 0 0 0 0 0 0 0 0 0 0 0 0 0 0 0 0 0 0 0 0 0 0 0 0 0 0 0 0 0 0 0 0 0 0 0 0 0 0 0 0 0
0 0 0 0 0 0 0 0 0 0 0 0 0 0 0 0 0 0 0 0 0 0 0 0 0 0 0 0 0 0 0 0 0 0 0 0 0 0 0 0 0 0 0 0 0 0 0 0 0
0 0 0 0 0 0 0 0 0 0 0 0 0 0 0 0 0 0 0 0 0 0 0 0 0 0 0 0 0 0 0 0 0 0 0 0 0 0 0 0 0 0 0 0 0 0 0 0 0
0 0 0 0 0 0 0 0 0 0 0 0 0 0 0 0 0 0 0 0 0 0 0 0 0 0 0 0 0 0 0 0 0 0 0 0 0 0 0 0 0 0 0 0 0 0 0 0 0
0 0 0 0 0 0 0 0 0 0 0 0 0 0 0 0 0 0 0 0 0 0 0 0 0 0 0 0 0 0 0 0 0 0 0 0 0 0 0 0 0 0 0 0 0 0 0 0 0
0 0 0 0 0 0 0 0 0 0 0 0 0 0 0 0 0 0 0 0 0 0 0 0 0 0 0 0 0 0 0 0 0 0 0 0 0 0 0 0 0 0 0 0 0 0 0 0 0
0 0 0 0 0 0 0 0 0 0 0 0 0 0 0 0 0 0 0 0 0 0 0 0 0 0 0 0 0 0 0 0 0 0 0 0 0 0 0 0 0 0 0 0 0 0 0 0 0
0 0 0 0 0 0 0 0 0 0 0 -0 -0 0 0 0 0 0 0 0 0 0 0 0 0 0 0 0 0 0 0 0 0 0 0 0 0 0 0 0 0 0 0 0 0 0 0 0 0
Wind_Speed
7 2 2 3 4 3 4 3 2 4 4 3 3 2 3 3 2 4 4 3 3 3 3 4 4 6 7 8 8 8 8 9 9 9 9 9 9 9 9 8 8 8 9 9 9 9 9 9 8
4 2 3 3 5 6 4 3 4 3 4 5 4 3 4 5 5 4 2 2 2 3 4 4 5 7 8 8 8 8 8 8 8 9 9 9 9 9 9 9 9 9 9 9 9 8 8 8 8
2 2 2 3 4 5 4 3 4 4 5 3 4 3 3 4 3 2 2 1 3 4 4 5 7 8 9 9 9 8 8 8 8 8 8 8 9 9 9 9 9 9 9 8 8 8 8 7 8
2 2 1 3 4 1 0 3 5 6 4 3 4 5 4 4 3 2 2 3 4 5 5 6 7 8 9 9 9 9 9 9 9 9 8 8 8 8 8 8 8 8 8 8 8 8 8 8 8
1 2 3 3 3 1 1 2 4 5 4 3 4 5 5 3 4 4 4 4 5 5 5 6 8 8 9 9 10 10 10 10 9 10 10 10 9 9 9 8 8 8 8 8 8 8 8 7 7
2 2 5 6 5 3 2 1 3 3 3 3 3 5 5 3 3 4 4 4 5 5 5 6 8 9 9 9 10 10 10 10 10 10 11 11 11 11 10 9 9 8 8 8 8 8 6 7 7
1 2 3 5 5 5 2 1 2 3 3 2 1 4 5 3 3 4 5 5 5 6 5 5 5 6 8 9 10 10 10 11 11 11 10 11 11 11 11 11 10 9 9 9 9 8 8 7 7
1 2 3 4 6 5 3 2 2 1 2 2 0 2 3 2 3 5 5 5 6 5 5 5 5 4 5 6 9 9 10 10 10 11 10 10 10 10 10 10 10 9 9 9 9 9 8 7 7
1 3 4 4 4 4 3 3 3 2 4 3 2 3 3 5 6 6 5 5 5 5 4 3 4 4 4 5 6 6 8 9 8 7 8 6 5 5 6 10 11 10 9 9 9 9 8 6 6
1 2 1 1 1 3 3 2 3 3 3 3 2 3 4 6 6 6 5 4 4 3 3 3 3 3 3 4 4 3 4 4 4 4 4 3 4 4 5 7 9 9 9 8 8 7 5 3 3
3 2 3 3 2 3 4 3 2 3 2 2 2 4 5 5 5 5 4 4 3 2 3 3 2 3 3 3 3 2 2 2 3 4 4 3 3 3 3 2 3 4 5 5 5 4 4 4 3
5 5 3 2 2 2 2 3 2 1 1 2 1 4 5 6 5 4 4 4 3 3 3 3 3 2 3 3 2 2 2 2 2 3 3 2 2 2 2 2 3 3 2 3 4 3 4 4 4
4 4 4 5 5 4 3 2 1 1 0 2 2 3 4 4 4 3 4 4 3 3 2 2 2 2 2 2 2 2 2 2 2 2 2 2 2 2 2 2 2 3 3 3 3 3 4 4 4
5 5 4 3 3 2 2 0 1 2 1 2 2 2 3 4 4 4 4 4 4 3 3 2 2 2 2 2 2 1 1 1 1 1 2 2 2 2 2 2 2 3 3 3 2 3 3 3 3
5 5 4 3 2 1 0 1 3 2 2 2 2 2 2 2 3 4 4 4 4 4 3 2 2 2 2 2 2 1 1 1 1 1 2 2 2 2 1 1 2 2 2 2 2 3 2 2 3
3 3 2 2 2 1 3 4 2 3 3 3 3 3 3 3 4 3 3 4 4 4 3 3 2 2 2 1 2 1 1 1 2 2 1 2 2 2 1 1 2 2 2 2 2 2 2 2 2
2 2 1 1 2 1 2 4 1 2 4 5 4 4 3 4 4 4 4 3 4 4 4 4 3 3 2 1 1 1 1 1 1 1 1 2 2 2 1 1 2 2 2 2 2 2 2 2 2
3 2 2 2 1 1 3 6 5 4 6 6 6 5 5 5 5 5 4 3 4 5 4 4 3 3 2 1 1 1 1 1 1 1 1 1 1 2 1 1 2 1 1 2 2 2 2 2 2
3 3 2 2 2 3 5 8 8 6 7 8 7 7 7 7 5 4 4 4 4 5 5 5 4 3 3 2 2 2 1 1 1 1 2 1 2 1 1 1 1 1 1 1 1 1 2 2 1
3 3 2 1 1 2 5 9 9 8 9 9 9 9 8 6 5 5 4 4 4 4 5 5 4 4 4 2 2 1 1 1 0 0 1 1 1 1 1 1 1 1 1 1 1 1 1 1 2
1 3 2 2 2 2 5 7 7 6 8 8 9 9 8 8 7 6 5 5 5 5 4 4 5 4 4 3 2 2 2 1 1 1 0 1 1 1 1 1 1 1 0 0 1 1 1 1 1
2 0 2 2 3 1 3 6 5 5 7 9 10 9 9 8 8 7 6 6 6 5 4 4 4 4 4 4 4 4 3 2 1 1 0 1 1 1 1 1 0 0 0 0 1 1 1 1 0
1 1 0 1 2 2 2 5 5 2 7 9 9 9 9 8 8 8 7 6 5 5 4 4 4 5 4 4 4 4 3 2 1 1 1 0 1 1 1 1 1 1 1 1 1 1 0 0 1
2 1 1 1 2 3 3 5 6 4 6 6 6 7 8 8 8 7 6 5 4 4 4 4 4 4 5 4 4 4 4 3 2 2 1 1 0 0 1 1 1 0 0 0 1 1 0 0 1
1 1 0 1 1 3 1 5 8 5 4 4 5 6 6 7 7 6 6 6 5 5 5 4 5 4 4 5 5 5 5 4 4 3 2 1 1 0 0 0 0 0 0 0 0 1 0 0 1
1 1 1 2 3 2 2 7 6 2 3 4 4 5 5 6 6 7 7 6 5 5 6 6 6 5 4 4 4 4 4 3 2 2 2 2 1 1 0 0 0 0 0 0 0 0 1 0 0
2 1 1 1 1 3 4 6 8 3 4 4 4 5 6 6 6 6 6 6 5 6 6 6 6 5 5 4 4 4 4 3 3 2 2 1 1 0 1 1 1 1 1 1 1 0 0 0 0
1 2 2 2 2 4 4 5 4 4 5 5 5 6 7 6 6 6 6 6 5 6 5 5 5 5 4 4 4 3 3 3 3 2 2 1 1 1 1 1 1 1 1 1 1 1 0 0 0
3 3 2 2 2 3 4 4 3 4 4 5 6 6 6 6 6 5 5 5 5 5 5 5 5 4 4 4 4 3 3 2 2 2 2 1 1 1 2 1 1 1 1 1 1 1 1 1 1
3 3 4 3 3 3 4 6 0 4 4 5 5 5 5 5 5 5 5 5 5 5 5 5 5 5 5 4 4 3 2 2 2 2 2 2 2 2 1 1 1 1 1 1 2 2 1 2 1
Wind_Direction
328 320 237 224 216 208 197 163 152 138 115 82 87 104 102 72 33 77 67 57 65 102 105 102 65 85 94 91 87 86 84 83 84 82 79 77 73 70 68 68 67 67 68 71 73 72 71 72 74
325 287 222 227 230 211 185 173 167 122 106 114 92 96 99 83 50 62 67 37 83 103 101 92 68 79 86 86 86 84 83 82 82 81 79 76 73 69 67 65 66 66 67 67 67 70 71 69 70
299 284 242 215 227 228 174 143 138 109 112 127 108 70 64 73 63 61 38 84 102 98 94 80 60 72 80 83 82 81 80 78 78 78 76 73 70 67 65 63 63 61 62 63 65 68 70 68 68
250 187 204 222 201 242 244 128 138 140 125 92 121 108 89 48 34 44 75 107 105 95 90 81 60 72 78 80 80 79 77 74 72 72 71 69 67 66 64 62 61 60 58 57 59 62 64 64 63
241 209 189 196 198 155 67 102 154 154 142 119 133 120 105 60 49 79 96 102 98 93 86 85 64 69 75 78 76 76 76 73 71 69 67 66 62 59 58 58 59 59 58 57 57 59 61 63 64
178 207 210 203 189 165 116 90 153 136 122 120 130 126 110 75 76 87 91 89 87 84 82 83 68 66 70 74 75 74 74 73 71 68 67 66 64 58 53 51 53 54 54 55 54 54 61 66 65
210 189 208 197 185 184 145 126 150 151 137 111 124 133 121 108 83 100 99 93 89 83 81 78 82 84 75 70 68 69 70 69 68 68 66 64 61 57 49 43 47 52 53 52 51 51 55 62 64
334 160 168 192 196 186 133 121 84 78 111 75 31 138 135 143 117 109 101 91 83 76 76 80 81 81 85 86 70 65 66 65 65 63 60 61 62 58 49 45 44 46 49 51 51 50 51 54 60
268 204 198 194 195 157 131 133 85 52 116 104 54 34 58 121 127 119 105 87 75 65 61 70 78 79 79 81 78 75 68 62 63 65 59 60 66 65 58 47 41 42 44 47 49 48 50 52 61
347 203 188 90 124 134 130 126 124 143 140 131 107 74 98 127 135 130 120 107 91 74 61 59 74 74 80 77 83 80 77 72 65 62 60 58 57 52 53 55 43 41 39 44 44 43 49 40 51
55 89 104 94 70 126 138 121 125 176 173 177 169 150 139 140 140 141 138 130 117 103 79 63 71 81 81 79 73 64 60 65 66 58 56 60 61 60 51 53 48 43 37 41 40 38 35 35 33
91 72 68 76 63 116 137 141 137 191 55 45 125 151 154 160 157 160 153 142 133 118 91 71 66 79 81 82 76 67 60 51 63 62 54 58 55 47 45 42 38 33 30 29 28 23 33 38 39
91 95 71 70 73 83 105 153 166 222 38 71 114 146 163 171 168 167 163 150 148 137 120 105 88 88 90 91 83 83 71 58 62 68 58 49 54 51 45 37 35 33 27 28 28 26 28 37 42
100 103 92 70 80 80 110 219 224 220 184 146 132 154 179 183 180 172 171 163 164 158 147 132 119 102 108 102 87 68 71 73 53 66 59 51 43 47 45 40 33 30 26 23 27 31 29 34 42
118 109 91 62 51 84 163 216 218 184 184 191 189 183 192 196 195 192 181 180 176 170 160 151 146 135 130 122 113 94 71 64 52 43 58 54 41 43 43 38 35 25 23 23 30 37 36 43 45
142 146 143 75 27 9 242 241 166 174 199 216 216 210 214 211 209 208 193 188 182 173 169 167 159 157 150 136 137 121 100 81 58 28 35 46 41 37 43 43 37 25 20 20 28 29 40 41 31
151 180 193 132 39 346 240 251 194 203 219 230 229 225 226 223 212 211 205 195 188 182 180 176 167 169 162 145 141 114 96 81 72 46 23 21 32 26 29 43 39 32 28 27 26 27 36 39 27
171 185 216 246 8 310 246 255 249 220 234 241 236 231 229 232 222 209 199 195 193 185 183 181 175 174 167 157 149 138 119 101 85 59 24 24 32 32 34 44 41 38 41 37 31 37 44 37 21
160 178 224 267 309 284 254 260 260 240 235 240 239 231 228 233 225 206 193 185 188 188 186 185 184 180 180 184 186 188 177 133 97 62 25 32 36 32 44 47 39 33 40 34 33 42 55 44 26
153 176 233 276 327 270 266 268 263 245 237 237 236 231 228 226 219 206 195 189 195 192 193 189 191 190 195 203 194 192 185 162 112 75 41 31 34 32 33 33 24 18 19 29 31 42 29 31 5
206 219 225 252 307 238 281 266 241 235 237 240 237 235 231 223 220 211 199 202 204 207 202 197 196 195 198 197 177 163 163 177 180 182 52 24 21 30 30 17 5 344 321 331 346 16 14 3 15
226 196 186 213 253 273 299 284 256 238 241 236 233 227 225 221 219 213 203 207 210 211 203 202 200 195 193 190 191 188 191 207 220 211 167 65 39 34 23 353 342 347 350 2 353 348 326 297 309
121 86 198 233 240 262 237 261 270 217 249 240 230 226 223 220 217 213 208 209 212 202 197 202 204 197 193 193 193 193 197 203 192 187 175 135 71 48 36 27 11 13 12 16 359 346 347 309 290
144 134 114 185 223 254 229 239 267 223 239 245 232 228 224 219 218 214 205 200 208 194 192 195 200 202 194 193 194 194 196 192 186 196 196 182 149 42 31 35 16 351 349 333 322 301 300 295 280
168 177 253 236 230 247 148 241 257 256 243 250 247 235 224 214 213 209 202 199 201 197 196 196 198 205 197 193 195 197 198 197 200 205 208 209 216 273 332 1 359 322 303 325 291 253 255 246 243
190 256 230 264 270 293 203 245 262 274 283 270 260 246 229 214 207 206 204 203 202 203 205 201 200 202 197 194 193 194 195 196 200 206 213 223 227 242 279 276 271 292 290 253 241 234 237 250 263
164 171 11 93 11 276 256 271 281 243 261 253 247 239 229 217 209 206 201 200 200 207 208 206 201 197 193 196 192 188 192 194 196 192 207 229 227 212 219 211 205 203 205 201 205 215 175 132 139
336 145 159 189 237 267 275 259 263 255 255 249 235 231 229 217 209 205 201 203 204 210 206 200 202 198 191 195 192 187 190 192 196 193 194 213 217 213 212 206 191 188 183 173 176 169 137 142 203
160 166 173 177 254 253 277 262 228 241 249 243 238 232 221 211 209 208 205 206 206 203 195 192 197 196 190 190 187 186 185 182 181 194 195 206 208 211 211 203 189 185 179 171 172 177 182 186 213
245 215 185 206 224 235 265 273 124 254 270 259 251 235 220 214 212 208 206 205 201 195 192 193 195 197 200 190 179 181 173 170 183 197 199 201 205 208 202 194 187 182 178 181 182 186 194 193 198